OV1-13 R/B, 3212

Orbit data source: Space-Track

OV1-13 R/B, 3212 is space debris originally from a launch on Sat, 06 Apr 1968 UTC launched from the Air Force Western Test Range (AFWTR). Debris objects in space refer to the collection of defunct objects orbiting the Earth. Examples of debris include non-operational satellites, rocket bodies, and fragments generated from explosions, collisions, or faulty payload assembly.

Loading next visibility...
Identifier
3212, 1968-026D
Orbit
Active
Country
Flag of USUS
Related business
Manufacturer
UTC
Mission
Spacecraft
Bus & Motor
FW4, Unknown motor
Mass
125 kg wet, 125 kg dry
Launch date (UTC)
1968-04-06 (58 years ago)
Launch vehicle
Unknown
Launch site
Air Force Western Test Range (AFWTR)
Object type
Payload
Rocket body
Debris
Shape & HBR
Unknown
Radar Cross Section
Large (>1 m²)

Expand to show TLE details & history
Last TLE update: 2 days ago

TLE from 2 days ago
0 OV1-13 R/B
1  3212U 68026D   26109.15830782 -.00000051  00000-0 -75972-4 0  9994
2  3212 100.0008  32.9978 3786738 267.3956  49.8519  7.28616141316054
Epoch: 2026-04-19T03:47Z
TLE epoch observation values (Epoch: 2026-04-19T03:47:57.795Z)
Latitude
-0.00001°
Longitude
128.74018°
Altitude
3,426.707 km
Speed
6.772 km/s
True Right ascension
02h 11m 59s
True Declination
0° 00' 00"
Sunlit
Object was in daylight at epoch
Visualization orbit readout
Latitude
Unknown
Longitude
Unknown
Altitude
Unknown
Speed
Unknown
Apparent Right ascension
Unknown
Apparent Declination
Unknown
Sunlit
N/A
Visualization observer readout
Local Sidereal Time
02:13:23
Azimuth
Unknown
Elevation
Unknown
Doppler factor
Unknown
Orbital elements
Apogee altitude
9,113.985 km
Perigee altitude
603.69 km
Semi-major axis
11,236.975 km
Eccentricity
0.37867
Inclination
100.0008°
RAAN
32.9978°
Arg. of periapsis
267.3956°
True anomaly
92.70567°
Mean anomaly
49.8519°
Eccentric anomaly
70.27527°
Mean motion
1.82209 °/min
Orbital period
197.58 mins
BSTAR
-0.000075972
Loading maneuver chart data...
Computing Atmospheric mass density...
Loading historical data...
Loading historical data...
Loading historical data...
Loading historical data...
Loading historical data...
Loading historical data...
Loading historical data...
Other satellites on launch #26 in the year 1968 (1968-04-06 UTC)

Documentation

Showing up to 5 results
|